Tracking 30918 objects as of 3-Jul-2025
HD Live streaming from Space Station
objects crossing your sky now

COSMOS 2363 (GLONASS)

Track COSMOS 2363 (GLONASS) now!
COSMOS 2363 (GLONASS) is classified as:


NORAD ID: 25594
Int'l Code: 1998-077B
Perigee: 19,065.4 km
Apogee: 19,208.4 km
Inclination: 64.1 °
Period: 675.7 minutes
Semi major axis: 25507 km
RCS: 3.981 m2 (large)
Launch date: December 30, 1998
Source: Commonwealth of Independent States (former USSR) (CIS)
Launch site: TYURATAM MISSILE AND SPACE COMPLEX (TTMTR)
Your satellite tracking list
HESSI
Track 1 satellite(s)




NASA's NSSDC Master Catalog

Two Line Element Set (TLE):
1 25594U 98077B   25181.49281262 -.00000047  00000-0  00000-0 0  9999
2 25594  64.0933  72.4451 0028034  44.3589 138.2562  2.13103625206182
Source of the keplerian elements: AFSPC